Location: Prague
(50.0830°N, 14.4670°E)
Time: 02:39:52
(UTC+01:00)

AO-7 - Pass Details

Date: 17 December 2021
Orbit: 1440 x 1459 km, 101.9° (Epoch: 28 January)

Event Time Altitude Azimuth Distance (km) Brightness Sun altitude
Rises 06:45:54 0° 19° (NNE) 4,552 ? -10.5°
Reaches altitude 10° 06:49:09 10° 8° (N) 3,574 ? -10.0°
Maximum altitude 06:55:46 28° 315° (NW) 2,462 ? -9.1°
Drops below altitude 10° 07:02:25 10° 261° (W) 3,574 ? -8.1°
Sets 07:05:40 0° 251° (WSW) 4,552 ? -7.7°
